Regional Weather Roundup
Issued by NWS

Home | Current Version | Previous Version | Graphics & Text | Print | Product List | Glossary On
Versions: 1 2 3 4 5 6 7 8 9 10 11 12 13 14 15 16 17 18 19 20 21 22 23 24 25 26 27 28 29 30 31 32 33 34 35 36 37 38 39 40 41 42 43 44 45 46 47 48 49 50
000
ASUS45 KSLC 282210
RWRUT

UTAH REGIONAL WEATHER ROUNDUP
NATIONAL WEATHER SERVICE SALT LAKE CITY UT
400 PM MDT WED JUN 28 2017

UTZ001>011-023>025-282300-

NORTHERN UTAH

CITY           SKY/WX    TMP DP  RH WIND       PRES   REMARKS
BRIGHAM CITY   MOSUNNY   87  22   9 W20G25    29.84S
DUGWAY         MOSUNNY   91  22   8 N9        29.82F
HILL AFB       SUNNY     85  32  15 W13G20    29.88F
LOGAN          MOSUNNY   81  41  24 N13       29.85S
OGDEN          SUNNY     87  30  13 W14G23    29.85F
SALT LAKE CITY MOSUNNY   90  37  15 NW13G20   29.82F
TOOELE VALLEY  SUNNY     84  48  28 NE13G18   29.85S
WENDOVER       SUNNY     90  28  11 NW18G28   29.84F
HEBER CITY     MOSUNNY   86  28  12 W9G16     29.89F
WEST JORDAN    MOSUNNY   87  52  29 NW17      29.86S

$$

UTZ011>015-024>027-282300-

CENTRAL/NORTHEAST UTAH

CITY           SKY/WX    TMP DP  RH WIND       PRES   REMARKS
PROVO AIRPORT  MOSUNNY   88  37  16 NW13      29.84S
MOAB/CANYONLAN SUNNY     99   8   3 SW22G29   29.74F HX  91
DELTA          SUNNY     91  19   7 SW16G26   29.84F
PRICE          SUNNY     90  20   7 W20G26    29.90F
ROOSEVELT      MOSUNNY   91  27   9 W18G30    29.84F
VERNAL         PTSUNNY   91  25   9 SW15G21   29.82F

$$

UTZ013>016-019>022-027-282300-

SOUTHERN UTAH

CITY           SKY/WX    TMP DP  RH WIND       PRES   REMARKS
BRYCE CANYON   SUNNY     82  10   6 SW14G30   30.11F
CEDAR CITY     SUNNY     91  12   5 SW17G29   29.95S
MILFORD        SUNNY     96  15   5 SW24G38   29.84F
ST GEORGE      PTCLDY   100  20   5 VRB6G18   29.76F HX  93
HANKSVILLE     SUNNY    100  18   5 S18G25    29.77F HX  93
BLANDING       SUNNY     91  14   6 W12G30    30.01F

$$

REGIONAL REPORTS     COLORADO/ARIZONA

CITY           SKY/WX    TMP DP  RH WIND       PRES   REMARKS
CRAIG, CO      PTSUNNY   88  11   5 SW23G32   29.90F
GRAND JUNCTION SUNNY     95  15   5 W16G22    29.80F
RIFLE, CO      MOSUNNY   93   7   4 W25G37    29.86F
MONTROSE, CO   SUNNY     91  20   7 SW18G24   29.91F
CORTEZ, CO     SUNNY     91   5   4 SW13G26   29.98F
COLORADO CITY    N/A     97  18   5 W18G28    29.96S HX  90
PAGE, AZ       NOT AVBL
GRAND CANYON   SUNNY     89   5   4 SW24G33   30.09F
KINGMAN, AZ    SUNNY     98  24   7 SW18G30   29.89F HX  91
FLAGSTAFF, AZ  SUNNY     81  27  14 W18G35    30.16F

$$

REGIONAL REPORTS    NEVADA/IDAHO/WYOMING

CITY           SKY/WX    TMP DP  RH WIND       PRES   REMARKS
LAS VEGAS, NV  SUNNY    107   4   2 W16G25    29.71F HX  98
ELY, NY        SUNNY     86  30  13 W24G30    29.99F
ELKO, NV       SUNNY     84  25  11 W20G29    29.96F
POCATELLO, ID  MOSUNNY   70  47  43 NW17G29   29.90R THUNDER
BURLEY, ID     SUNNY     79  45  29 W14       29.87S
FORT BRIDGER,    N/A     79  20  11 W23G33    30.03S
EVANSTON, WY   SUNNY     77  28  16 W28G37    30.01F
ROCK SPRINGS,  MOSUNNY   80  18  10 W32G48    29.94F
KEMMERER, WY     N/A     68  34  28 NW29G38   30.03R

$$



USA.gov is the U.S. government's official web portal to all federal, state and local government web resources and services.